Location: Banios
(43.0451°N, 0.2335°E)
Time: 00:00:51
(UTC+00:00)

N. Korean satellite - Pass Details

Date: 06 December 2021
Orbit: 447 x 491 km, 97.3° (Epoch: 21 January)

Event Time Altitude Azimuth Distance (km) Brightness Sun altitude
Rises 17:36:16 0° 216° (SW) 2,523 11.2 -12.8°
Reaches altitude 10° 17:40:03 10° 258° (WSW) 1,638 10.7 -13.4°
Maximum altitude 17:40:43 10° 269° (W) 1,610 10.4 -13.5°
Drops below altitude 10° 17:41:24 10° 281° (W) 1,635 10.2 -13.6°
Sets 17:45:10 0° 323° (NW) 2,505 10.4 -14.3°
